星链-35836(STARLINK-35836)

导读 | 豆包AI

STARLINK-35836是美国太空探索技术公司(SpaceX)于2025年11月21日发射的星链低轨互联网星座卫星之一,服务全球互联网接入。它延续星链量产平板设计,重约227千克,搭载Ku/Ka波段通信载荷与光学星间链路,配备氪霍尔推进器用于轨道机动与末期离轨,可在寿命结束后再入大气层焚毁,助力星链为偏远缺基础设施地区提供高速低宽带通信。

基本信息
目录编号:
66571
目录名称:
STARLINK-35836
国际标识:
2025-268Q
轨道中心:
EARTH
卫星名称:
星链-35836
卫星全名:
星链-35836(STARLINK-35836)
卫星状态:
在轨 (已飞行159 天)
发射日期:
2025-11-21 UTC
国别 :
美国 (US)
星等 :
--
轨道信息
数据来源 国际轨道数据
星历时间: 2026-04-28T21:39:28+0800
13小时前
查看轨道信息
半长轴: 6861.165km
偏心率: 0.0000733
轨道倾角: 43.005°
近地点辐角 274.533°
升交点赤经 65.762°
平近点角 85.543°
近地点: 482.525km
远地点: 483.531km
周期: 94.266分钟
每日圈数: 15.275871
详细信息
固有亮度:
5
最大亮度:
2.5
卫星平台:
Starlink V1.0
覆盖范围:
全球
运营商:
太空探索技术公司
运营商所在国:
美国
制造商(研发单位):
太空探索技术公司
制造商所在国:
美国
使用方式:
暂无
卫星简介
Starlink 计划是 SpaceX 推出的全球卫星互联网项目,通过发射低轨道卫星,为全球尤其是偏远地区提供高速、低延迟的互联网服务。自 2019 年起,Starlink 已部署数千颗卫星,旨在缩小全球数字鸿沟,推动互联网普及。该项目还为军事、航空等行业提供通信支持,带来广泛经济效益。
2D轨道图
3D轨道图
轨道高度分析图
轨道倾角分析图
轨道综合分析图
查看轨道综合分析图